MDT,Max TemperatureF,Mean TemperatureF,Min TemperatureF,Max Dew PointF,MeanDew PointF,Min DewpointF,Max Humidity, Mean Humidity, Min Humidity, Max Sea Level PressureIn, Mean Sea Level PressureIn, Min Sea Level PressureIn, Max VisibilityMiles, Mean VisibilityMiles, Min VisibilityMiles, Max Wind SpeedMPH, Mean Wind SpeedMPH, Max Gust SpeedMPH,PrecipitationIn, CloudCover, Events, WindDirDegrees
2012-10-1,70,58,47,49,40,34,82,52,26,30.36,30.27,30.18,10,10,10,10,3,,0.00,2,Rain,57
2012-10-2,84,60,37,44,33,20,94,49,9,30.17,29.99,29.89,10,10,10,12,2,,0.00,0,,153
2012-10-3,84,62,41,36,28,18,64,38,9,30.38,30.00,29.85,10,10,7,25,5,34,0.00,1,,322
2012-10-4,47,42,37,30,26,24,73,57,41,30.36,30.31,30.20,10,10,10,12,6,,0.00,5,,81
2012-10-5,41,36,31,34,30,25,95,80,65,30.30,30.23,30.16,10,10,4,15,5,20,0.00,7,Snow,18
2012-10-6,37,34,32,34,30,27,99,83,66,30.30,30.26,30.20,10,9,3,15,6,17,0.00,8,,71
2012-10-7,54,38,23,29,20,6,97,55,16,30.24,30.13,30.04,10,10,10,9,1,,0.00,1,,136
2012-10-8,76,50,23,26,16,2,86,42,6,30.04,29.94,29.82,10,10,7,24,3,32,0.00,0,,262
2012-10-9,61,46,30,36,31,9,85,64,13,30.21,30.08,29.86,10,10,4,12,3,16,0.00,5,,59
2012-10-10,58,44,30,38,35,30,97,77,41,30.18,30.09,29.99,10,8,3,6,0,,0.00,0,,280
2012-10-11,63,48,33,39,34,32,97,65,31,30.27,30.13,30.00,10,9,5,12,3,,0.00,0,,55
2012-10-12,59,45,31,47,36,29,95,74,42,30.24,30.05,29.89,10,10,5,12,3,,0.00,1,Rain-Thunderstorm,336
2012-10-13,60,52,43,47,42,35,92,71,47,30.14,29.97,29.87,10,10,5,14,4,17,0.00,7,Rain,319
2012-10-14,,,,,,,,,,,,,,,,,,,0.00,,,-1
2012-10-15,79,68,57,36,24,16,37,19,10,30.05,29.95,29.90,10,10,10,14,4,21,0.00,0,,288
2012-10-16,77,60,43,42,30,21,60,33,12,29.93,29.75,29.57,10,10,10,24,7,39,0.00,1,Rain,248
2012-10-17,59,52,40,26,7,1,34,17,10,30.02,29.86,29.68,10,10,7,29,18,40,0.00,0,,300
2012-10-18,64,47,30,21,16,11,63,32,13,30.11,30.06,30.02,10,10,7,15,7,20,0.00,0,,133
2012-10-19,74,50,27,28,21,14,78,39,10,30.11,29.97,29.86,10,10,10,15,2,22,0.00,0,,234
2012-10-20,75,59,43,30,23,14,54,30,11,29.88,29.79,29.70,10,10,10,14,3,17,0.00,0,,200
2012-10-21,70,56,41,37,26,18,78,34,19,29.94,29.84,29.75,10,10,10,16,3,21,0.00,0,,68
2012-10-22,66,49,32,38,35,30,96,67,32,29.94,29.85,29.73,10,10,7,10,1,30,0.00,0,,357
2012-10-23,78,56,33,35,26,8,86,45,7,29.94,29.75,29.68,10,10,7,15,3,25,0.00,0,,43
2012-10-24,50,40,30,41,33,26,100,72,54,30.08,29.91,29.77,10,8,1,22,4,40,0.00,7,Rain-Snow,34
2012-10-25,37,33,29,31,29,26,100,88,68,30.25,30.18,30.09,10,6,1,10,4,,0.00,7,Snow,98
2012-10-26,39,33,27,30,27,26,100,89,66,30.44,30.31,30.15,10,8,1,10,6,,0.00,4,Snow,46
2012-10-27,50,36,23,32,27,19,99,77,30,30.16,30.11,30.05,10,8,2,8,2,,0.00,0,,66
2012-10-28,60,43,26,41,32,25,97,77,29,30.12,30.07,30.00,10,10,7,12,2,,0.00,0,,195
2012-10-29,70,51,32,43,33,30,96,62,23,30.13,30.10,30.07,10,10,10,18,2,23,0.00,0,,219
2012-10-30,72,52,32,38,31,21,94,55,14,30.19,30.13,30.06,10,10,10,13,4,21,0.00,0,,217
2012-10-31,70,51,32,36,31,24,92,59,18,30.18,30.14,30.11,10,10,10,7,2,,0.00,0,,150